Regional Weather Roundup
Issued by NWS Little Rock, AR

Home | Current Version | Previous Version | Graphics & Text | Print | Product List | Glossary On
Versions: 1 2 3 4 5 6 7 8 9 10 11 12 13 14 15 16 17 18 19 20 21 22 23 24 25 26 27 28 29 30 31 32 33 34 35 36 37 38 39 40 41 42 43 44 45 46 47 48 49 50
000
ASUS44 KLZK 250005
RWRLZK

WEATHER ROUNDUP FOR ARKANSAS
NATIONAL WEATHER SERVICE LITTLE ROCK AR
700 PM CDT TUE MAY 24 2016

NOTE: "FAIR" INDICATES FEW OR NO CLOUDS BELOW 12,000 FEET WITH NO
SIGNIFICANT WEATHER AND/OR OBSTRUCTIONS TO VISIBILITY.

ARZ001-003-010-029-250100-
NORTHWEST ARKANSAS

CITY           SKY/WX    TMP DP  RH WIND       PRES   REMARKS
FAYETTEVILLE   CLOUDY    76  71  85 S10       29.98S
6HR MIN TEMP:  72; 6HR MAX TEMP:  80; 6HR PCP: TRACE;

FORT SMITH     CLOUDY    83  69  62 SE9       29.94S HX  86
6HR MIN TEMP:  80; 6HR MAX TEMP:  84; 6HR PCP: TRACE;

HARRISON       CLOUDY    63  62  97 SE14      30.04F
6HR MIN TEMP:  63; 6HR MAX TEMP:  71; 6HR PCP:  0.93;

BENTONVILLE    CLOUDY    73  63  68 SE8       29.99F
6HR MIN TEMP:  73; 6HR MAX TEMP:  81;

ROGERS         CLOUDY    73  65  75 E9        29.99F
6HR MIN TEMP:  73; 6HR MAX TEMP:  83;

SILOAM SPGS    CLOUDY    77  64  65 S9        29.98F
6HR MIN TEMP:  77; 6HR MAX TEMP:  84;

HIGHFILL       CLOUDY    75  68  78 SE8       29.97F
6HR MIN TEMP:  75; 6HR MAX TEMP:  83;

SPRINGDALE     MOSUNNY   75  68  78 E7        30.01S
$$

ARZ004-005-016-250100-
NORTH CENTRAL ARKANSAS

CITY           SKY/WX    TMP DP  RH WIND       PRES   REMARKS
BATESVILLE     CLOUDY    64  61  88 W6        30.14R THUNDER
6HR MIN TEMP:  64; 6HR MAX TEMP:  84; 6HR PCP:  0.60;

FLIPPIN        CLOUDY   N/A N/A N/A S7        29.98F
                                      6HR PCP:  1.37;

MTN HOME         N/A    N/A N/A N/A MISG      29.96F
$$

ARZ040-041-250100-
WEST CENTRAL ARKANSAS

CITY           SKY/WX    TMP DP  RH WIND       PRES   REMARKS
MENA           MOSUNNY   82  73  74 SE5       30.00S HX  88
MOUNT IDA      SUNNY     81  70  69 VRB5      29.98S
6HR MIN TEMP:  79; 6HR MAX TEMP:  84; 6HR PCP:  0.01;

$$

ARZ009-017-025-026-028-250100-
NORTHEAST ARKANSAS

CITY           SKY/WX    TMP DP  RH WIND       PRES   REMARKS
CORNING        LGT RAIN  66  66 100 S7        30.11S
JONESBORO      LGT RAIN  66  65  96 NE8       30.09R
6HR MIN TEMP:  65; 6HR MAX TEMP:  85; 6HR PCP:  5.74;

NEWPORT        TSTM      65  65 100 NE15      30.08F FOG
6HR MIN TEMP:  65; 6HR MAX TEMP:  89; 6HR PCP:  0.82;

WALNUT RIDGE   CLOUDY    64  61  88 N7        30.09R THUNDER
6HR MIN TEMP:  64; 6HR MAX TEMP:  72; 6HR PCP:  0.97;

BLYTHEVILLE    TSTM      71  68  90 N25       30.05S
6HR MIN TEMP:  71; 6HR MAX TEMP:  85; 6HR PCP:  0.10;

$$

ARZ022-023-033-042-044-250100-
CENTRAL ARKANSAS

CITY           SKY/WX    TMP DP  RH WIND       PRES   REMARKS
LITTLE ROCK    CLOUDY    85  66  53 S8        30.00R HX  87
6HR MIN TEMP:  84; 6HR MAX TEMP:  88;

N LITTLE ROCK    N/A     83  67  58 S6        29.99R HX  86
6HR MIN TEMP:  83; 6HR MAX TEMP:  87;

JACKSONVILLE   CLOUDY    84  68  57 S3        30.01R HX  87
6HR MIN TEMP:  84; 6HR MAX TEMP:  88; 6HR PCP: TRACE;

SEARCY         LGT RAIN  68  64  87 N20G30    30.09R
6HR MIN TEMP:  68; 6HR MAX TEMP:  88;

HOT SPRINGS    CLOUDY    83  69  62 S7        30.00R HX  86
6HR MIN TEMP:  82; 6HR MAX TEMP:  87;

RUSSELLVILLE   CLOUDY    71  69  93 NE3       30.00S
6HR MIN TEMP:  70; 6HR MAX TEMP:  86; 6HR PCP:  0.10;

CLINTON        TSTM      64  64 100 CALM      30.07S
$$

ARZ036-250100-
EAST ARKANSAS

CITY           SKY/WX    TMP DP  RH WIND       PRES   REMARKS
WEST MEMPHIS   PTSUNNY   83  64  52 S10       30.01R
6HR MIN TEMP:  83; 6HR MAX TEMP:  89;

$$

ARZ050-053-066-070-073-250100-
SOUTHWEST ARKANSAS

CITY           SKY/WX    TMP DP  RH WIND       PRES   REMARKS
ARKADELPHIA    FAIR      85  76  74 SW5       30.00R HX  94
6HR MIN TEMP:  84; 6HR MAX TEMP:  89;

CAMDEN         MOSUNNY   84  68  58 SE5       29.99S HX  87
TEXARKANA      SUNNY     83  71  67 S7        29.98R HX  87
6HR MIN TEMP:  80; 6HR MAX TEMP:  85; 6HR PCP: TRACE;

EL DORADO      PTSUNNY   84  71  65 CALM      30.00S HX  89
6HR MIN TEMP:  82; 6HR MAX TEMP:  88; 6HR PCP: TRACE;

DE QUEEN       PTSUNNY   82  73  74 SE5       29.96R HX  87
6HR MIN TEMP:  81; 6HR MAX TEMP:  84;

$$

ARZ056-057-069-250100-
SOUTHEAST ARKANSAS

CITY           SKY/WX    TMP DP  RH WIND       PRES   REMARKS
PINE BLUFF     MOSUNNY   85  64  49 S9        30.00S HX  86
6HR MIN TEMP:  83; 6HR MAX TEMP:  88;

STUTTGART      CLOUDY    88  63  42 S13       30.01R HX  88
6HR MIN TEMP:  88; 6HR MAX TEMP:  90;

MONTICELLO     CLOUDY    86  63  45 S5        30.01S HX  87
6HR MIN TEMP:  86; 6HR MAX TEMP:  91;


$$





USA.gov is the U.S. government's official web portal to all federal, state and local government web resources and services.